Time,TemperatureF,DewpointF,PressureIn,WindDirection,WindDirectionDegrees,WindSpeedMPH,WindSpeedGustMPH,Humidity,HourlyPrecipIn,Conditions,Clouds,dailyrainin,SoftwareType,DateUTC
2013-10-18 00:02:00,65.7,62.4,29.95,NNW,345,5.0,5.0,89,0.00,,,0.00,Wunderground v.1.15,2013-10-18 05:02:00,
2013-10-18 00:08:00,65.7,62.4,29.95,North,352,2.0,5.0,89,0.00,,,0.00,Wunderground v.1.15,2013-10-18 05:08:00,
2013-10-18 00:14:00,65.6,62.3,29.95,NW,320,2.0,5.0,89,0.00,,,0.00,Wunderground v.1.15,2013-10-18 05:14:00,
2013-10-18 00:20:00,65.7,62.4,29.95,North,7,2.0,4.0,89,0.00,,,0.00,Wunderground v.1.15,2013-10-18 05:20:00,
2013-10-18 00:26:00,65.6,62.3,29.95,NNW,330,5.0,5.0,89,0.00,,,0.00,Wunderground v.1.15,2013-10-18 05:26:00,
2013-10-18 00:32:00,65.6,62.3,29.95,NNE,19,7.0,7.0,89,0.00,,,0.00,Wunderground v.1.15,2013-10-18 05:32:00,
2013-10-18 00:37:00,65.6,62.3,29.95,North,9,3.0,7.0,89,0.00,,,0.00,Wunderground v.1.15,2013-10-18 05:37:00,
2013-10-18 00:43:00,65.5,62.2,29.95,North,358,3.0,7.0,89,0.00,,,0.00,Wunderground v.1.15,2013-10-18 05:43:00,
2013-10-18 00:49:00,65.5,62.5,29.95,NNW,348,10.0,10.0,90,0.00,,,0.00,Wunderground v.1.15,2013-10-18 05:49:00,
2013-10-18 00:55:00,65.4,62.4,29.95,NNE,19,1.0,4.0,90,0.00,,,0.00,Wunderground v.1.15,2013-10-18 05:55:00,
2013-10-18 01:01:00,65.4,62.4,29.95,NW,322,6.0,6.0,90,0.00,,,0.00,Wunderground v.1.15,2013-10-18 06:01:00,
2013-10-18 01:06:00,65.3,62.3,29.95,North,352,3.0,6.0,90,0.00,,,0.00,Wunderground v.1.15,2013-10-18 06:06:00,
2013-10-18 01:12:00,65.2,62.2,29.95,NNW,342,5.0,5.0,90,0.00,,,0.00,Wunderground v.1.15,2013-10-18 06:12:00,
2013-10-18 01:18:00,65.1,62.1,29.95,NNE,12,3.0,6.0,90,0.00,,,0.00,Wunderground v.1.15,2013-10-18 06:18:00,
2013-10-18 01:24:00,65.1,62.1,29.95,NW,320,3.0,5.0,90,0.00,,,0.00,Wunderground v.1.15,2013-10-18 06:24:00,
2013-10-18 01:30:00,65.0,62.0,29.95,NNW,340,3.0,4.0,90,0.00,,,0.00,Wunderground v.1.15,2013-10-18 06:30:00,
2013-10-18 01:36:00,65.0,62.0,29.95,NNW,334,6.0,9.0,90,0.00,,,0.00,Wunderground v.1.15,2013-10-18 06:36:00,
2013-10-18 01:41:00,64.9,62.2,29.95,North,358,5.0,6.0,91,0.00,,,0.00,Wunderground v.1.15,2013-10-18 06:41:00,
2013-10-18 01:47:00,64.8,62.1,29.95,North,7,3.0,7.0,91,0.00,,,0.00,Wunderground v.1.15,2013-10-18 06:47:00,
2013-10-18 01:53:00,64.8,62.1,29.95,North,358,4.0,5.0,91,0.00,,,0.00,Wunderground v.1.15,2013-10-18 06:53:00,
2013-10-18 01:59:00,64.8,62.1,29.95,NW,312,3.0,9.0,91,0.00,,,0.00,Wunderground v.1.15,2013-10-18 06:59:00,
2013-10-18 02:04:00,64.7,62.0,29.95,NW,310,4.0,6.0,91,0.00,,,0.00,Wunderground v.1.15,2013-10-18 07:04:00,
2013-10-18 02:09:00,64.7,62.0,29.95,North,11,8.0,8.0,91,0.00,,,0.00,Wunderground v.1.15,2013-10-18 07:09:00,
2013-10-18 02:14:00,64.7,62.0,29.95,NNW,330,6.0,8.0,91,0.00,,,0.00,Wunderground v.1.15,2013-10-18 07:14:00,
2013-10-18 02:19:00,64.6,61.9,29.95,NNW,330,2.0,8.0,91,0.00,,,0.00,Wunderground v.1.15,2013-10-18 07:19:00,
2013-10-18 02:24:00,64.6,61.9,29.95,NNW,345,1.0,6.0,91,0.00,,,0.00,Wunderground v.1.15,2013-10-18 07:24:00,
2013-10-18 02:29:00,64.6,61.9,29.96,NNW,342,2.0,6.0,91,0.00,,,0.00,Wunderground v.1.15,2013-10-18 07:29:00,
2013-10-18 02:34:00,64.6,61.9,29.96,NNW,339,2.0,6.0,91,0.00,,,0.00,Wunderground v.1.15,2013-10-18 07:34:00,
2013-10-18 02:39:00,64.5,61.8,29.96,North,11,4.0,7.0,91,0.00,,,0.00,Wunderground v.1.15,2013-10-18 07:39:00,
2013-10-18 02:44:00,64.5,61.8,29.96,NW,314,2.0,6.0,91,0.00,,,0.00,Wunderground v.1.15,2013-10-18 07:44:00,
2013-10-18 02:49:00,64.5,61.8,29.96,NW,319,2.0,6.0,91,0.00,,,0.00,Wunderground v.1.15,2013-10-18 07:49:00,
2013-10-18 02:54:00,64.4,61.4,29.96,NNE,13,4.0,7.0,90,0.00,,,0.00,Wunderground v.1.15,2013-10-18 07:54:00,
2013-10-18 02:59:00,64.4,61.7,29.96,NE,50,4.0,7.0,91,0.00,,,0.00,Wunderground v.1.15,2013-10-18 07:59:00,
2013-10-18 03:04:00,64.4,61.7,29.96,NNW,338,2.0,6.0,91,0.00,,,0.00,Wunderground v.1.15,2013-10-18 08:04:00,
2013-10-18 03:09:00,64.4,61.7,29.95,NNW,340,1.0,6.0,91,0.00,,,0.00,Wunderground v.1.15,2013-10-18 08:09:00,
2013-10-18 03:14:00,64.4,61.7,29.95,North,356,1.0,4.0,91,0.00,,,0.00,Wunderground v.1.15,2013-10-18 08:14:00,
2013-10-18 03:19:00,64.3,61.6,29.95,NNE,23,3.0,6.0,91,0.00,,,0.00,Wunderground v.1.15,2013-10-18 08:19:00,
2013-10-18 03:24:00,64.3,61.6,29.95,NNW,338,6.0,7.0,91,0.00,,,0.00,Wunderground v.1.15,2013-10-18 08:24:00,
2013-10-18 03:29:00,64.2,61.5,29.95,NNE,18,3.0,7.0,91,0.00,,,0.00,Wunderground v.1.15,2013-10-18 08:29:00,
2013-10-18 03:34:00,64.1,61.4,29.95,NW,316,1.0,4.0,91,0.00,,,0.00,Wunderground v.1.15,2013-10-18 08:34:00,
2013-10-18 03:39:00,64.1,61.4,29.95,North,11,4.0,5.0,91,0.00,,,0.00,Wunderground v.1.15,2013-10-18 08:39:00,
2013-10-18 03:44:00,64.0,61.3,29.95,NE,50,1.0,5.0,91,0.00,,,0.00,Wunderground v.1.15,2013-10-18 08:44:00,
2013-10-18 03:49:00,63.9,61.2,29.95,NNW,338,2.0,5.0,91,0.00,,,0.00,Wunderground v.1.15,2013-10-18 08:49:00,
2013-10-18 03:54:00,63.9,61.2,29.95,NNW,333,3.0,7.0,91,0.00,,,0.00,Wunderground v.1.15,2013-10-18 08:54:00,
2013-10-18 03:59:00,63.9,61.2,29.95,North,350,2.0,7.0,91,0.00,,,0.00,Wunderground v.1.15,2013-10-18 08:59:00,
2013-10-18 04:04:00,63.9,61.2,29.95,NNW,342,1.0,6.0,91,0.00,,,0.00,Wunderground v.1.15,2013-10-18 09:04:00,
2013-10-18 04:10:00,63.8,61.1,29.96,North,1,2.0,2.0,91,0.00,,,0.00,Wunderground v.1.15,2013-10-18 09:10:00,
2013-10-18 04:15:00,63.8,61.1,29.96,NE,34,2.0,7.0,91,0.00,,,0.00,Wunderground v.1.15,2013-10-18 09:15:00,
2013-10-18 04:20:00,63.8,61.1,29.96,North,1,3.0,4.0,91,0.00,,,0.00,Wunderground v.1.15,2013-10-18 09:20:00,
2013-10-18 04:25:00,63.8,61.1,29.96,North,8,2.0,5.0,91,0.00,,,0.00,Wunderground v.1.15,2013-10-18 09:25:00,
2013-10-18 04:30:00,63.8,61.4,29.96,NNW,345,2.0,3.0,92,0.00,,,0.00,Wunderground v.1.15,2013-10-18 09:30:00,
2013-10-18 04:35:00,63.7,61.3,29.96,NNE,17,3.0,5.0,92,0.00,,,0.00,Wunderground v.1.15,2013-10-18 09:35:00,
2013-10-18 04:40:00,63.7,61.3,29.96,NNE,26,6.0,6.0,92,0.00,,,0.00,Wunderground v.1.15,2013-10-18 09:40:00,
2013-10-18 04:45:00,63.7,61.3,29.96,NNW,327,2.0,6.0,92,0.00,,,0.00,Wunderground v.1.15,2013-10-18 09:45:00,
2013-10-18 04:50:00,63.7,61.3,29.96,NNE,18,5.0,5.0,92,0.00,,,0.00,Wunderground v.1.15,2013-10-18 09:50:00,
2013-10-18 04:55:00,63.7,61.3,29.96,NNE,30,2.0,6.0,92,0.00,,,0.00,Wunderground v.1.15,2013-10-18 09:55:00,
2013-10-18 05:00:00,63.7,61.3,29.96,NNW,342,1.0,2.0,92,0.00,,,0.00,Wunderground v.1.15,2013-10-18 10:00:00,
2013-10-18 05:05:00,63.6,61.2,29.96,North,358,2.0,4.0,92,0.00,,,0.00,Wunderground v.1.15,2013-10-18 10:05:00,
2013-10-18 05:10:00,63.6,61.2,29.96,WNW,300,4.0,4.0,92,0.00,,,0.00,Wunderground v.1.15,2013-10-18 10:10:00,
2013-10-18 05:15:00,63.5,61.1,29.96,North,6,4.0,4.0,92,0.00,,,0.00,Wunderground v.1.15,2013-10-18 10:15:00,
2013-10-18 05:20:00,63.5,61.1,29.96,NW,319,0.0,2.0,92,0.00,,,0.00,Wunderground v.1.15,2013-10-18 10:20:00,
2013-10-18 05:25:00,63.5,61.1,29.97,NNW,334,2.0,6.0,92,0.00,,,0.00,Wunderground v.1.15,2013-10-18 10:25:00,
2013-10-18 05:30:00,63.4,61.0,29.97,North,349,5.0,5.0,92,0.00,,,0.00,Wunderground v.1.15,2013-10-18 10:30:00,
2013-10-18 05:35:00,63.4,61.0,29.97,NNW,330,2.0,6.0,92,0.00,,,0.00,Wunderground v.1.15,2013-10-18 10:35:00,
2013-10-18 05:40:00,63.3,60.9,29.97,NNW,336,1.0,2.0,92,0.00,,,0.00,Wunderground v.1.15,2013-10-18 10:40:00,
2013-10-18 05:45:00,63.3,60.9,29.97,NNW,338,2.0,5.0,92,0.00,,,0.00,Wunderground v.1.15,2013-10-18 10:45:00,
2013-10-18 05:50:00,63.2,61.1,29.97,North,357,2.0,3.0,93,0.00,,,0.00,Wunderground v.1.15,2013-10-18 10:50:00,
2013-10-18 05:55:00,63.1,61.0,29.97,NNW,344,1.0,3.0,93,0.00,,,0.00,Wunderground v.1.15,2013-10-18 10:55:00,
2013-10-18 06:00:00,63.0,60.9,29.97,NNW,344,1.0,2.0,93,0.00,,,0.00,Wunderground v.1.15,2013-10-18 11:00:00,
2013-10-18 06:05:00,63.0,60.9,29.97,NNW,330,4.0,4.0,93,0.00,,,0.00,Wunderground v.1.15,2013-10-18 11:05:00,
2013-10-18 06:10:00,62.9,60.8,29.97,NNW,340,1.0,2.0,93,0.00,,,0.00,Wunderground v.1.15,2013-10-18 11:10:00,
2013-10-18 06:15:00,62.9,60.8,29.97,NW,320,1.0,5.0,93,0.00,,,0.00,Wunderground v.1.15,2013-10-18 11:15:00,
2013-10-18 06:20:00,62.9,60.8,29.97,NNW,335,2.0,2.0,93,0.00,,,0.00,Wunderground v.1.15,2013-10-18 11:20:00,
2013-10-18 06:25:00,62.9,61.1,29.98,NNE,18,1.0,4.0,94,0.00,,,0.00,Wunderground v.1.15,2013-10-18 11:25:00,
2013-10-18 06:30:00,62.9,61.1,29.98,NNW,338,1.0,2.0,94,0.00,,,0.00,Wunderground v.1.15,2013-10-18 11:30:00,
2013-10-18 06:35:00,62.9,61.1,29.98,NNE,25,5.0,5.0,94,0.00,,,0.00,Wunderground v.1.15,2013-10-18 11:35:00,
2013-10-18 06:40:00,62.9,61.1,29.98,NNE,23,3.0,4.0,94,0.00,,,0.00,Wunderground v.1.15,2013-10-18 11:40:00,
2013-10-18 06:45:00,62.9,61.1,29.98,NW,315,2.0,6.0,94,0.00,,,0.00,Wunderground v.1.15,2013-10-18 11:45:00,
2013-10-18 06:50:00,62.9,61.1,29.98,NW,321,2.0,2.0,94,0.00,,,0.00,Wunderground v.1.15,2013-10-18 11:50:00,
2013-10-18 06:55:00,62.9,61.1,29.99,North,350,2.0,5.0,94,0.00,,,0.00,Wunderground v.1.15,2013-10-18 11:55:00,
2013-10-18 07:00:00,62.9,61.1,29.99,NW,319,5.0,5.0,94,0.00,,,0.00,Wunderground v.1.15,2013-10-18 12:00:00,
2013-10-18 07:05:00,62.8,61.0,29.99,NNE,15,3.0,5.0,94,0.00,,,0.00,Wunderground v.1.15,2013-10-18 12:05:00,
2013-10-18 07:10:00,62.9,61.1,29.99,NW,316,2.0,3.0,94,0.00,,,0.00,Wunderground v.1.15,2013-10-18 12:10:00,
2013-10-18 07:15:00,62.9,61.1,29.99,NNW,342,2.0,5.0,94,0.00,,,0.00,Wunderground v.1.15,2013-10-18 12:15:00,
2013-10-18 07:20:00,62.9,61.1,30.00,NNW,332,1.0,3.0,94,0.00,,,0.00,Wunderground v.1.15,2013-10-18 12:20:00,
2013-10-18 07:25:00,63.0,61.2,30.00,NNW,340,1.0,8.0,94,0.00,,,0.00,Wunderground v.1.15,2013-10-18 12:25:00,
2013-10-18 07:30:00,63.1,61.3,30.00,NNE,30,7.0,7.0,94,0.00,,,0.00,Wunderground v.1.15,2013-10-18 12:30:00,
2013-10-18 07:35:00,63.2,61.4,30.00,North,352,3.0,7.0,94,0.00,,,0.00,Wunderground v.1.15,2013-10-18 12:35:00,
2013-10-18 07:40:00,63.2,61.4,30.00,NW,325,3.0,6.0,94,0.00,,,0.00,Wunderground v.1.15,2013-10-18 12:40:00,
2013-10-18 07:45:00,63.2,61.4,30.00,North,358,1.0,6.0,94,0.00,,,0.00,Wunderground v.1.15,2013-10-18 12:45:00,
2013-10-18 07:50:00,63.2,61.4,30.00,NNE,25,4.0,5.0,94,0.00,,,0.00,Wunderground v.1.15,2013-10-18 12:50:00,
2013-10-18 07:55:00,63.2,61.4,30.00,North,354,5.0,9.0,94,0.00,,,0.00,Wunderground v.1.15,2013-10-18 12:55:00,
2013-10-18 08:00:00,63.2,61.4,30.00,NNE,30,5.0,5.0,94,0.00,,,0.00,Wunderground v.1.15,2013-10-18 13:00:00,
2013-10-18 08:05:00,63.2,61.4,30.01,North,11,4.0,6.0,94,0.00,,,0.00,Wunderground v.1.15,2013-10-18 13:05:00,
2013-10-18 08:10:00,63.3,61.5,30.01,ENE,62,3.0,5.0,94,0.00,,,0.00,Wunderground v.1.15,2013-10-18 13:10:00,
2013-10-18 08:15:00,63.4,61.3,30.01,East,96,3.0,8.0,93,0.00,,,0.00,Wunderground v.1.15,2013-10-18 13:15:00,
2013-10-18 08:20:00,63.6,61.5,30.01,NE,54,2.0,6.0,93,0.00,,,0.00,Wunderground v.1.15,2013-10-18 13:20:00,
2013-10-18 08:25:00,63.8,61.7,30.01,NE,40,4.0,9.0,93,0.00,,,0.00,Wunderground v.1.15,2013-10-18 13:25:00,
2013-10-18 08:30:00,64.0,61.6,30.01,NNW,330,2.0,4.0,92,0.00,,,0.00,Wunderground v.1.15,2013-10-18 13:30:00,
2013-10-18 08:35:00,64.5,61.8,30.01,NNW,340,3.0,10.0,91,0.00,,,0.00,Wunderground v.1.15,2013-10-18 13:35:00,
2013-10-18 08:40:00,64.5,61.8,30.01,North,5,6.0,8.0,91,0.00,,,0.00,Wunderground v.1.15,2013-10-18 13:40:00,
2013-10-18 08:45:00,64.6,61.6,30.01,North,10,5.0,9.0,90,0.00,,,0.00,Wunderground v.1.15,2013-10-18 13:45:00,
2013-10-18 08:50:00,64.8,61.5,30.01,North,4,5.0,9.0,89,0.00,,,0.00,Wunderground v.1.15,2013-10-18 13:50:00,
2013-10-18 08:55:00,65.3,62.3,30.01,ENE,58,6.0,9.0,90,0.00,,,0.00,Wunderground v.1.15,2013-10-18 13:55:00,
2013-10-18 09:00:00,65.9,62.2,30.02,NNW,327,4.0,4.0,88,0.00,,,0.00,Wunderground v.1.15,2013-10-18 14:00:00,
2013-10-18 09:05:00,66.3,62.3,30.02,NE,36,3.0,9.0,87,0.00,,,0.00,Wunderground v.1.15,2013-10-18 14:05:00,
2013-10-18 09:10:00,66.5,62.2,30.01,NW,319,5.0,7.0,86,0.00,,,0.00,Wunderground v.1.15,2013-10-18 14:10:00,
2013-10-18 09:15:00,66.5,62.2,30.01,North,356,2.0,10.0,86,0.00,,,0.00,Wunderground v.1.15,2013-10-18 14:15:00,
2013-10-18 09:20:00,66.3,61.7,30.02,ENE,77,3.0,4.0,85,0.00,,,0.00,Wunderground v.1.15,2013-10-18 14:20:00,
2013-10-18 09:25:00,66.2,61.9,30.01,NW,314,8.0,8.0,86,0.00,,,0.00,Wunderground v.1.15,2013-10-18 14:25:00,
2013-10-18 09:30:00,66.3,61.7,30.01,NNE,18,6.0,6.0,85,0.00,,,0.00,Wunderground v.1.15,2013-10-18 14:30:00,
2013-10-18 09:35:00,66.6,61.6,30.01,North,5,7.0,10.0,84,0.00,,,0.00,Wunderground v.1.15,2013-10-18 14:35:00,
2013-10-18 09:41:00,66.9,61.6,30.01,ENE,58,8.0,12.0,83,0.00,,,0.00,Wunderground v.1.15,2013-10-18 14:41:00,
2013-10-18 09:45:00,67.1,61.4,30.02,ENE,70,4.0,12.0,82,0.00,,,0.00,Wunderground v.1.15,2013-10-18 14:45:00,
2013-10-18 09:50:00,67.1,61.4,30.02,SSW,194,1.0,8.0,82,0.00,,,0.00,Wunderground v.1.15,2013-10-18 14:50:00,
2013-10-18 09:55:00,66.9,61.2,30.01,NNW,347,5.0,8.0,82,0.00,,,0.00,Wunderground v.1.15,2013-10-18 14:55:00,
2013-10-18 10:00:00,67.2,61.5,30.02,NNW,343,3.0,6.0,82,0.00,,,0.00,Wunderground v.1.15,2013-10-18 15:00:00,
2013-10-18 10:06:00,67.7,61.7,30.02,ENE,62,7.0,8.0,81,0.00,,,0.00,Wunderground v.1.15,2013-10-18 15:06:00,
2013-10-18 10:11:00,68.3,61.9,30.01,North,356,3.0,5.0,80,0.00,,,0.00,Wunderground v.1.15,2013-10-18 15:11:00,
2013-10-18 10:16:00,68.2,61.1,30.01,ENE,71,3.0,9.0,78,0.00,,,0.00,Wunderground v.1.15,2013-10-18 15:16:00,
2013-10-18 10:21:00,68.3,61.2,30.01,ENE,58,6.0,6.0,78,0.00,,,0.00,Wunderground v.1.15,2013-10-18 15:21:00,
2013-10-18 10:26:00,68.1,61.0,30.01,ENE,65,1.0,7.0,78,0.00,,,0.00,Wunderground v.1.15,2013-10-18 15:26:00,
2013-10-18 10:31:00,68.5,61.7,30.02,NNE,15,1.0,4.0,79,0.00,,,0.00,Wunderground v.1.15,2013-10-18 15:31:00,
2013-10-18 10:36:00,68.8,61.3,30.01,North,359,4.0,9.0,77,0.00,,,0.00,Wunderground v.1.15,2013-10-18 15:36:00,
2013-10-18 10:41:00,69.0,61.5,30.01,NNW,338,1.0,9.0,77,0.00,,,0.00,Wunderground v.1.15,2013-10-18 15:41:00,
2013-10-18 10:46:00,69.2,61.3,30.01,North,358,6.0,10.0,76,0.00,,,0.00,Wunderground v.1.15,2013-10-18 15:46:00,
2013-10-18 10:51:00,69.3,61.4,30.01,NNE,23,3.0,4.0,76,0.00,,,0.00,Wunderground v.1.15,2013-10-18 15:51:00,
2013-10-18 10:56:00,69.6,61.3,30.01,NNE,18,7.0,7.0,75,0.00,,,0.00,Wunderground v.1.15,2013-10-18 15:56:00,
2013-10-18 11:01:00,69.3,61.0,30.01,NNW,328,7.0,7.0,75,0.00,,,0.00,Wunderground v.1.15,2013-10-18 16:01:00,
2013-10-18 11:06:00,69.2,60.9,30.01,North,354,2.0,7.0,75,0.00,,,0.00,Wunderground v.1.15,2013-10-18 16:06:00,
2013-10-18 11:11:00,69.5,61.6,30.01,NW,314,4.0,9.0,76,0.00,,,0.00,Wunderground v.1.15,2013-10-18 16:11:00,
2013-10-18 11:16:00,70.0,61.7,30.01,NW,320,4.0,9.0,75,0.00,,,0.00,Wunderground v.1.15,2013-10-18 16:16:00,
2013-10-18 11:21:00,70.4,61.7,30.01,NNE,18,5.0,7.0,74,0.00,,,0.00,Wunderground v.1.15,2013-10-18 16:21:00,
2013-10-18 11:26:00,70.2,61.5,30.00,ENE,70,3.0,8.0,74,0.00,,,0.00,Wunderground v.1.15,2013-10-18 16:26:00,
2013-10-18 11:31:00,70.1,61.8,30.00,NNW,333,5.0,6.0,75,0.00,,,0.00,Wunderground v.1.15,2013-10-18 16:31:00,
2013-10-18 11:36:00,70.3,62.0,30.00,ENE,71,3.0,6.0,75,0.00,,,0.00,Wunderground v.1.15,2013-10-18 16:36:00,
2013-10-18 11:41:00,70.4,61.7,30.00,ENE,70,3.0,5.0,74,0.00,,,0.00,Wunderground v.1.15,2013-10-18 16:41:00,
2013-10-18 11:46:00,70.3,62.0,29.99,North,6,2.0,5.0,75,0.00,,,0.00,Wunderground v.1.15,2013-10-18 16:46:00,
2013-10-18 11:51:00,70.2,61.5,29.99,North,9,0.0,4.0,74,0.00,,,0.00,Wunderground v.1.15,2013-10-18 16:51:00,
2013-10-18 11:56:00,70.2,61.5,29.99,NNW,328,1.0,6.0,74,0.00,,,0.00,Wunderground v.1.15,2013-10-18 16:56:00,
2013-10-18 12:01:00,70.2,61.1,29.99,NNE,15,4.0,5.0,73,0.00,,,0.00,Wunderground v.1.15,2013-10-18 17:01:00,
2013-10-18 12:06:00,70.3,61.6,29.99,NE,48,5.0,7.0,74,0.00,,,0.00,Wunderground v.1.15,2013-10-18 17:06:00,
2013-10-18 12:11:00,70.5,61.8,29.99,NW,319,3.0,4.0,74,0.00,,,0.00,Wunderground v.1.15,2013-10-18 17:11:00,
2013-10-18 12:16:00,71.0,61.9,29.99,NW,321,2.0,4.0,73,0.00,,,0.00,Wunderground v.1.15,2013-10-18 17:16:00,
2013-10-18 12:21:00,71.3,62.2,29.98,NW,324,4.0,4.0,73,0.00,,,0.00,Wunderground v.1.15,2013-10-18 17:21:00,
2013-10-18 12:26:00,71.4,61.9,29.98,NNE,17,4.0,8.0,72,0.00,,,0.00,Wunderground v.1.15,2013-10-18 17:26:00,
2013-10-18 12:31:00,71.4,61.5,29.98,NNW,338,2.0,6.0,71,0.00,,,0.00,Wunderground v.1.15,2013-10-18 17:31:00,
2013-10-18 12:35:00,71.6,61.7,29.98,SSW,194,1.0,6.0,71,0.00,,,0.00,Wunderground v.1.15,2013-10-18 17:35:00,
2013-10-18 12:40:00,71.7,61.4,29.98,North,1,2.0,3.0,70,0.00,,,0.00,Wunderground v.1.15,2013-10-18 17:40:00,
2013-10-18 12:45:00,71.7,61.8,29.98,NW,323,4.0,6.0,71,0.00,,,0.00,Wunderground v.1.15,2013-10-18 17:45:00,
2013-10-18 12:50:00,71.7,61.4,29.97,NNW,328,3.0,4.0,70,0.00,,,0.00,Wunderground v.1.15,2013-10-18 17:50:00,
2013-10-18 12:55:00,72.1,61.8,29.97,NNW,338,3.0,6.0,70,0.00,,,0.00,Wunderground v.1.15,2013-10-18 17:55:00,
2013-10-18 13:00:00,73.0,63.0,29.97,NW,326,2.0,3.0,71,0.00,,,0.00,Wunderground v.1.15,2013-10-18 18:00:00,
2013-10-18 13:05:00,72.8,61.2,29.96,WNW,302,2.0,7.0,67,0.00,,,0.00,Wunderground v.1.15,2013-10-18 18:05:00,
2013-10-18 13:10:00,73.1,61.5,29.96,NE,37,1.0,3.0,67,0.00,,,0.00,Wunderground v.1.15,2013-10-18 18:10:00,
2013-10-18 13:15:00,73.7,62.9,29.96,ENE,74,4.0,4.0,69,0.00,,,0.00,Wunderground v.1.15,2013-10-18 18:15:00,
2013-10-18 13:20:00,74.1,62.4,29.95,WSW,255,2.0,3.0,67,0.00,,,0.00,Wunderground v.1.15,2013-10-18 18:20:00,
2013-10-18 13:25:00,74.1,61.6,29.95,NNW,340,5.0,8.0,65,0.00,,,0.00,Wunderground v.1.15,2013-10-18 18:25:00,
2013-10-18 13:30:00,73.5,61.4,29.94,NNW,338,2.0,4.0,66,0.00,,,0.00,Wunderground v.1.15,2013-10-18 18:30:00,
2013-10-18 13:35:00,73.9,62.2,29.95,North,8,3.0,7.0,67,0.00,,,0.00,Wunderground v.1.15,2013-10-18 18:35:00,
2013-10-18 13:40:00,74.4,61.4,29.94,WNW,296,4.0,4.0,64,0.00,,,0.00,Wunderground v.1.15,2013-10-18 18:40:00,
2013-10-18 13:45:00,74.1,60.2,29.94,NNE,21,4.0,8.0,62,0.00,,,0.00,Wunderground v.1.15,2013-10-18 18:45:00,
2013-10-18 13:50:00,74.3,60.4,29.93,NNE,18,6.0,6.0,62,0.00,,,0.00,Wunderground v.1.15,2013-10-18 18:50:00,
2013-10-18 13:55:00,74.2,59.9,29.93,NNW,346,3.0,7.0,61,0.00,,,0.00,Wunderground v.1.15,2013-10-18 18:55:00,
2013-10-18 14:00:00,74.0,59.2,29.93,NNW,346,1.0,4.0,60,0.00,,,0.00,Wunderground v.1.15,2013-10-18 19:00:00,
2013-10-18 14:05:00,74.1,59.3,29.93,NNE,25,3.0,7.0,60,0.00,,,0.00,Wunderground v.1.15,2013-10-18 19:05:00,
2013-10-18 14:10:00,74.0,59.2,29.93,North,359,4.0,4.0,60,0.00,,,0.00,Wunderground v.1.15,2013-10-18 19:10:00,
2013-10-18 14:15:00,73.9,58.2,29.92,NNE,15,1.0,6.0,58,0.00,,,0.00,Wunderground v.1.15,2013-10-18 19:15:00,
2013-10-18 14:20:00,73.9,59.6,29.92,NW,324,2.0,4.0,61,0.00,,,0.00,Wunderground v.1.15,2013-10-18 19:20:00,
2013-10-18 14:25:00,74.1,59.8,29.92,NNW,342,1.0,6.0,61,0.00,,,0.00,Wunderground v.1.15,2013-10-18 19:25:00,
2013-10-18 14:30:00,74.4,60.1,29.92,NE,56,4.0,4.0,61,0.00,,,0.00,Wunderground v.1.15,2013-10-18 19:30:00,
2013-10-18 14:35:00,74.4,60.1,29.92,NE,45,2.0,4.0,61,0.00,,,0.00,Wunderground v.1.15,2013-10-18 19:35:00,
2013-10-18 14:41:00,74.4,60.1,29.91,NNW,342,2.0,3.0,61,0.00,,,0.00,Wunderground v.1.15,2013-10-18 19:41:00,
2013-10-18 14:46:00,74.2,60.3,29.91,NNE,12,3.0,4.0,62,0.00,,,0.00,Wunderground v.1.15,2013-10-18 19:46:00,
2013-10-18 14:51:00,74.0,61.0,29.91,North,6,2.0,5.0,64,0.00,,,0.00,Wunderground v.1.15,2013-10-18 19:51:00,
2013-10-18 14:56:00,73.9,61.4,29.92,NW,319,1.0,5.0,65,0.00,,,0.00,Wunderground v.1.15,2013-10-18 19:56:00,
2013-10-18 15:01:00,73.9,61.0,29.92,NE,34,3.0,5.0,64,0.00,,,0.00,Wunderground v.1.15,2013-10-18 20:01:00,
2013-10-18 15:06:00,73.7,61.6,29.91,NNW,328,3.0,6.0,66,0.00,,,0.00,Wunderground v.1.15,2013-10-18 20:06:00,
2013-10-18 15:11:00,73.4,60.9,29.91,North,9,2.0,6.0,65,0.00,,,0.00,Wunderground v.1.15,2013-10-18 20:11:00,
2013-10-18 15:16:00,73.2,61.2,29.91,North,356,2.0,6.0,66,0.00,,,0.00,Wunderground v.1.15,2013-10-18 20:16:00,
2013-10-18 15:21:00,73.0,60.5,29.90,NNW,342,3.0,6.0,65,0.00,,,0.00,Wunderground v.1.15,2013-10-18 20:21:00,
2013-10-18 15:26:00,72.9,60.9,29.90,NNE,23,2.0,6.0,66,0.00,,,0.00,Wunderground v.1.15,2013-10-18 20:26:00,
2013-10-18 15:31:00,72.9,61.3,29.90,NNW,346,2.0,3.0,67,0.00,,,0.00,Wunderground v.1.15,2013-10-18 20:31:00,
2013-10-18 15:36:00,72.8,60.3,29.91,North,352,4.0,6.0,65,0.00,,,0.00,Wunderground v.1.15,2013-10-18 20:36:00,
2013-10-18 15:41:00,72.6,60.2,29.91,North,9,3.0,6.0,65,0.00,,,0.00,Wunderground v.1.15,2013-10-18 20:41:00,
2013-10-18 15:46:00,72.6,60.6,29.91,NNW,338,1.0,6.0,66,0.00,,,0.00,Wunderground v.1.15,2013-10-18 20:46:00,
2013-10-18 15:51:00,72.6,61.0,29.91,NNE,21,2.0,3.0,67,0.00,,,0.00,Wunderground v.1.15,2013-10-18 20:51:00,
2013-10-18 15:56:00,72.4,60.8,29.91,NNE,16,2.0,3.0,67,0.00,,,0.00,Wunderground v.1.15,2013-10-18 20:56:00,
2013-10-18 16:01:00,72.0,60.4,29.90,NNE,12,3.0,3.0,67,0.00,,,0.00,Wunderground v.1.15,2013-10-18 21:01:00,
2013-10-18 16:06:00,71.8,60.7,29.90,NNW,338,1.0,4.0,68,0.00,,,0.00,Wunderground v.1.15,2013-10-18 21:06:00,
2013-10-18 16:11:00,71.6,60.9,29.91,NNW,336,0.0,2.0,69,0.00,,,0.00,Wunderground v.1.15,2013-10-18 21:11:00,
2013-10-18 16:16:00,71.5,60.4,29.91,NNE,13,1.0,3.0,68,0.00,,,0.00,Wunderground v.1.15,2013-10-18 21:16:00,
2013-10-18 16:21:00,71.5,60.8,29.91,NNE,15,1.0,2.0,69,0.00,,,0.00,Wunderground v.1.15,2013-10-18 21:21:00,
2013-10-18 16:26:00,71.4,61.1,29.90,North,359,1.0,3.0,70,0.00,,,0.00,Wunderground v.1.15,2013-10-18 21:26:00,
2013-10-18 16:31:00,71.2,61.3,29.90,North,6,1.0,4.0,71,0.00,,,0.00,Wunderground v.1.15,2013-10-18 21:31:00,
2013-10-18 16:36:00,71.2,61.7,29.91,North,354,1.0,4.0,72,0.00,,,0.00,Wunderground v.1.15,2013-10-18 21:36:00,
2013-10-18 16:41:00,71.1,61.6,29.91,North,352,1.0,2.0,72,0.00,,,0.00,Wunderground v.1.15,2013-10-18 21:41:00,
2013-10-18 16:46:00,71.1,61.6,29.91,NW,317,1.0,5.0,72,0.00,,,0.00,Wunderground v.1.15,2013-10-18 21:46:00,
2013-10-18 16:51:00,71.0,61.9,29.92,NW,324,2.0,3.0,73,0.00,,,0.00,Wunderground v.1.15,2013-10-18 21:51:00,
2013-10-18 16:56:00,70.9,62.2,29.91,NNW,330,3.0,5.0,74,0.00,,,0.00,Wunderground v.1.15,2013-10-18 21:56:00,
2013-10-18 17:01:00,70.9,62.2,29.92,NNW,336,1.0,3.0,74,0.00,,,0.00,Wunderground v.1.15,2013-10-18 22:01:00,
2013-10-18 17:06:00,70.8,62.5,29.92,NNW,332,1.0,3.0,75,0.00,,,0.00,Wunderground v.1.15,2013-10-18 22:06:00,
2013-10-18 17:11:00,70.7,62.4,29.92,NW,324,2.0,3.0,75,0.00,,,0.00,Wunderground v.1.15,2013-10-18 22:11:00,
2013-10-18 17:16:00,70.4,62.1,29.91,North,360,2.0,4.0,75,0.00,,,0.00,Wunderground v.1.15,2013-10-18 22:16:00,
2013-10-18 17:21:00,70.1,61.8,29.92,NNW,342,2.0,4.0,75,0.00,,,0.00,Wunderground v.1.15,2013-10-18 22:21:00,
2013-10-18 17:26:00,70.0,62.1,29.91,NW,322,1.0,4.0,76,0.00,,,0.00,Wunderground v.1.15,2013-10-18 22:26:00,
2013-10-18 17:31:00,69.8,62.3,29.92,North,355,1.0,3.0,77,0.00,,,0.00,Wunderground v.1.15,2013-10-18 22:31:00,
2013-10-18 17:36:00,69.6,62.1,29.91,North,352,1.0,3.0,77,0.00,,,0.00,Wunderground v.1.15,2013-10-18 22:36:00,
2013-10-18 17:41:00,69.4,61.9,29.92,NNW,333,1.0,1.0,77,0.00,,,0.00,Wunderground v.1.15,2013-10-18 22:41:00,
2013-10-18 17:46:00,69.2,62.0,29.92,NNW,342,1.0,2.0,78,0.00,,,0.00,Wunderground v.1.15,2013-10-18 22:46:00,
2013-10-18 17:51:00,69.1,61.9,29.91,North,353,2.0,3.0,78,0.00,,,0.00,Wunderground v.1.15,2013-10-18 22:51:00,
2013-10-18 17:56:00,68.9,61.8,29.91,NNW,348,1.0,3.0,78,0.00,,,0.00,Wunderground v.1.15,2013-10-18 22:56:00,
2013-10-18 18:01:00,68.8,61.7,29.92,NNW,348,2.0,2.0,78,0.00,,,0.00,Wunderground v.1.15,2013-10-18 23:01:00,
2013-10-18 18:06:00,68.7,61.6,29.91,NNE,27,1.0,4.0,78,0.00,,,0.00,Wunderground v.1.15,2013-10-18 23:06:00,
2013-10-18 18:11:00,68.6,61.8,29.91,NNW,347,2.0,5.0,79,0.00,,,0.00,Wunderground v.1.15,2013-10-18 23:11:00,
2013-10-18 18:16:00,68.5,61.7,29.91,NE,36,1.0,5.0,79,0.00,,,0.00,Wunderground v.1.15,2013-10-18 23:16:00,
2013-10-18 18:21:00,68.4,61.6,29.91,NNW,330,1.0,2.0,79,0.00,,,0.00,Wunderground v.1.15,2013-10-18 23:21:00,
2013-10-18 18:26:00,68.3,61.5,29.92,NNE,20,1.0,3.0,79,0.00,,,0.00,Wunderground v.1.15,2013-10-18 23:26:00,
2013-10-18 18:31:00,68.1,61.3,29.92,North,354,1.0,2.0,79,0.00,,,0.00,Wunderground v.1.15,2013-10-18 23:31:00,
2013-10-18 18:36:00,68.1,61.7,29.92,NNW,340,1.0,3.0,80,0.00,,,0.00,Wunderground v.1.15,2013-10-18 23:36:00,
2013-10-18 18:41:00,68.0,61.6,29.92,NNW,346,1.0,2.0,80,0.00,,,0.00,Wunderground v.1.15,2013-10-18 23:41:00,
2013-10-18 18:46:00,67.9,61.5,29.92,North,5,2.0,5.0,80,0.00,,,0.00,Wunderground v.1.15,2013-10-18 23:46:00,
2013-10-18 18:51:00,67.8,61.4,29.92,NNW,347,1.0,2.0,80,0.00,,,0.00,Wunderground v.1.15,2013-10-18 23:51:00,
2013-10-18 18:56:00,67.7,61.7,29.92,NNE,23,2.0,5.0,81,0.00,,,0.00,Wunderground v.1.15,2013-10-18 23:56:00,
2013-10-18 19:01:00,67.7,61.7,29.92,North,359,1.0,2.0,81,0.00,,,0.00,Wunderground v.1.15,2013-10-19 00:01:00,
2013-10-18 19:06:00,67.6,61.6,29.92,NNW,328,1.0,2.0,81,0.00,,,0.00,Wunderground v.1.15,2013-10-19 00:06:00,
2013-10-18 19:11:00,67.5,61.8,29.92,NNE,18,1.0,2.0,82,0.00,,,0.00,Wunderground v.1.15,2013-10-19 00:11:00,
2013-10-18 19:16:00,67.3,61.6,29.92,North,4,3.0,4.0,82,0.00,,,0.00,Wunderground v.1.15,2013-10-19 00:16:00,
2013-10-18 19:21:00,67.3,61.6,29.93,NNW,347,1.0,2.0,82,0.00,,,0.00,Wunderground v.1.15,2013-10-19 00:21:00,
2013-10-18 19:26:00,67.2,61.5,29.92,NNW,346,2.0,4.0,82,0.00,,,0.00,Wunderground v.1.15,2013-10-19 00:26:00,
2013-10-18 19:31:00,67.1,61.4,29.93,NNW,333,3.0,4.0,82,0.00,,,0.00,Wunderground v.1.15,2013-10-19 00:31:00,
2013-10-18 19:36:00,67.1,61.4,29.93,NNW,334,3.0,4.0,82,0.00,,,0.00,Wunderground v.1.15,2013-10-19 00:36:00,
2013-10-18 19:41:00,67.1,61.4,29.93,NNW,348,1.0,3.0,82,0.00,,,0.00,Wunderground v.1.15,2013-10-19 00:41:00,
2013-10-18 19:46:00,67.1,61.4,29.93,NNE,23,4.0,4.0,82,0.00,,,0.00,Wunderground v.1.15,2013-10-19 00:46:00,
2013-10-18 19:51:00,67.1,61.4,29.93,NNW,333,2.0,6.0,82,0.00,,,0.00,Wunderground v.1.15,2013-10-19 00:51:00,
2013-10-18 19:56:00,67.0,61.3,29.93,NNW,340,2.0,7.0,82,0.00,,,0.00,Wunderground v.1.15,2013-10-19 00:56:00,
2013-10-18 20:01:00,66.9,61.2,29.94,NNW,347,1.0,3.0,82,0.00,,,0.00,Wunderground v.1.15,2013-10-19 01:01:00,
2013-10-18 20:06:00,66.8,61.1,29.94,NNW,333,2.0,5.0,82,0.00,,,0.00,Wunderground v.1.15,2013-10-19 01:06:00,
2013-10-18 20:11:00,66.7,61.0,29.94,NNW,333,5.0,6.0,82,0.00,,,0.00,Wunderground v.1.15,2013-10-19 01:11:00,
2013-10-18 20:16:00,66.7,61.0,29.94,NNW,330,2.0,6.0,82,0.00,,,0.00,Wunderground v.1.15,2013-10-19 01:16:00,
2013-10-18 20:21:00,66.6,60.9,29.94,North,6,3.0,4.0,82,0.00,,,0.00,Wunderground v.1.15,2013-10-19 01:21:00,
2013-10-18 20:26:00,66.6,60.9,29.95,NNW,342,1.0,4.0,82,0.00,,,0.00,Wunderground v.1.15,2013-10-19 01:26:00,
2013-10-18 20:32:00,66.5,60.8,29.94,NNW,348,1.0,2.0,82,0.00,,,0.00,Wunderground v.1.15,2013-10-19 01:32:00,
2013-10-18 20:37:00,66.5,60.8,29.95,North,6,2.0,3.0,82,0.00,,,0.00,Wunderground v.1.15,2013-10-19 01:37:00,
2013-10-18 20:42:00,66.4,60.7,29.95,NNW,345,2.0,3.0,82,0.00,,,0.00,Wunderground v.1.15,2013-10-19 01:42:00,
2013-10-18 20:47:00,66.4,60.7,29.94,NW,322,2.0,4.0,82,0.00,,,0.00,Wunderground v.1.15,2013-10-19 01:47:00,
2013-10-18 20:52:00,66.3,60.6,29.95,NW,324,2.0,4.0,82,0.00,,,0.00,Wunderground v.1.15,2013-10-19 01:52:00,
2013-10-18 20:57:00,66.2,60.5,29.95,NNW,327,2.0,5.0,82,0.00,,,0.00,Wunderground v.1.15,2013-10-19 01:57:00,
2013-10-18 21:02:00,66.2,60.9,29.95,North,6,2.0,5.0,83,0.00,,,0.00,Wunderground v.1.15,2013-10-19 02:02:00,
2013-10-18 21:07:00,66.1,60.8,29.96,NNW,327,3.0,5.0,83,0.00,,,0.00,Wunderground v.1.15,2013-10-19 02:07:00,
2013-10-18 21:12:00,66.0,60.7,29.96,North,352,3.0,6.0,83,0.00,,,0.00,Wunderground v.1.15,2013-10-19 02:12:00,
2013-10-18 21:17:00,66.0,60.7,29.96,NNW,327,4.0,6.0,83,0.00,,,0.00,Wunderground v.1.15,2013-10-19 02:17:00,
2013-10-18 21:22:00,66.0,60.3,29.96,NW,320,3.0,6.0,82,0.00,,,0.00,Wunderground v.1.15,2013-10-19 02:22:00,
2013-10-18 21:27:00,65.9,60.2,29.97,NNW,328,3.0,6.0,82,0.00,,,0.00,Wunderground v.1.15,2013-10-19 02:27:00,
2013-10-18 21:32:00,65.9,60.2,29.97,NW,324,3.0,5.0,82,0.00,,,0.00,Wunderground v.1.15,2013-10-19 02:32:00,
2013-10-18 21:37:00,65.8,60.2,29.97,NNW,328,2.0,5.0,82,0.00,,,0.00,Wunderground v.1.15,2013-10-19 02:37:00,
2013-10-18 21:42:00,65.7,60.1,29.97,NNW,340,2.0,3.0,82,0.00,,,0.00,Wunderground v.1.15,2013-10-19 02:42:00,
2013-10-18 21:47:00,65.6,60.0,29.97,NNW,342,2.0,4.0,82,0.00,,,0.00,Wunderground v.1.15,2013-10-19 02:47:00,
2013-10-18 21:52:00,65.6,60.0,29.97,North,351,2.0,3.0,82,0.00,,,0.00,Wunderground v.1.15,2013-10-19 02:52:00,
2013-10-18 21:57:00,65.6,60.0,29.97,North,354,2.0,5.0,82,0.00,,,0.00,Wunderground v.1.15,2013-10-19 02:57:00,
2013-10-18 22:02:00,65.6,60.0,29.97,NW,316,2.0,3.0,82,0.00,,,0.00,Wunderground v.1.15,2013-10-19 03:02:00,
2013-10-18 22:07:00,65.6,60.0,29.97,NNW,330,1.0,4.0,82,0.00,,,0.00,Wunderground v.1.15,2013-10-19 03:07:00,
2013-10-18 22:12:00,65.5,59.5,29.97,North,349,4.0,6.0,81,0.00,,,0.00,Wunderground v.1.15,2013-10-19 03:12:00,
2013-10-18 22:17:00,65.5,59.5,29.97,NNE,17,4.0,6.0,81,0.00,,,0.00,Wunderground v.1.15,2013-10-19 03:17:00,
2013-10-18 22:22:00,65.5,59.5,29.97,North,6,3.0,5.0,81,0.00,,,0.00,Wunderground v.1.15,2013-10-19 03:22:00,
2013-10-18 22:27:00,65.5,59.5,29.97,North,4,2.0,6.0,81,0.00,,,0.00,Wunderground v.1.15,2013-10-19 03:27:00,
2013-10-18 22:32:00,65.5,59.5,29.97,NNE,18,3.0,8.0,81,0.00,,,0.00,Wunderground v.1.15,2013-10-19 03:32:00,
2013-10-18 22:37:00,65.5,59.5,29.96,North,5,4.0,8.0,81,0.00,,,0.00,Wunderground v.1.15,2013-10-19 03:37:00,
2013-10-18 22:42:00,65.4,59.4,29.96,North,6,2.0,6.0,81,0.00,,,0.00,Wunderground v.1.15,2013-10-19 03:42:00,
2013-10-18 22:47:00,65.4,59.8,29.97,NNE,24,1.0,6.0,82,0.00,,,0.00,Wunderground v.1.15,2013-10-19 03:47:00,
2013-10-18 22:52:00,65.3,59.7,29.96,North,356,2.0,3.0,82,0.00,,,0.00,Wunderground v.1.15,2013-10-19 03:52:00,
2013-10-18 22:57:00,65.2,59.6,29.96,NW,324,2.0,7.0,82,0.00,,,0.00,Wunderground v.1.15,2013-10-19 03:57:00,
2013-10-18 23:01:00,65.2,59.6,29.96,NNE,16,1.0,3.0,82,0.00,,,0.00,Wunderground v.1.15,2013-10-19 04:01:00,
2013-10-18 23:07:00,65.2,59.6,29.97,North,1,2.0,7.0,82,0.00,,,0.00,Wunderground v.1.15,2013-10-19 04:07:00,
2013-10-18 23:12:00,65.2,59.6,29.97,NNE,21,4.0,5.0,82,0.00,,,0.00,Wunderground v.1.15,2013-10-19 04:12:00,
2013-10-18 23:17:00,65.2,59.6,29.97,NNE,19,2.0,8.0,82,0.00,,,0.00,Wunderground v.1.15,2013-10-19 04:17:00,
2013-10-18 23:22:00,65.2,59.6,29.97,North,352,3.0,6.0,82,0.00,,,0.00,Wunderground v.1.15,2013-10-19 04:22:00,
2013-10-18 23:27:00,65.2,59.6,29.97,NNE,23,3.0,6.0,82,0.00,,,0.00,Wunderground v.1.15,2013-10-19 04:27:00,
2013-10-18 23:32:00,65.2,59.6,29.96,NNW,344,1.0,5.0,82,0.00,,,0.00,Wunderground v.1.15,2013-10-19 04:32:00,
2013-10-18 23:37:00,65.2,59.6,29.97,NNW,328,3.0,6.0,82,0.00,,,0.00,Wunderground v.1.15,2013-10-19 04:37:00,
2013-10-18 23:42:00,65.1,59.5,29.96,North,1,2.0,3.0,82,0.00,,,0.00,Wunderground v.1.15,2013-10-19 04:42:00,
2013-10-18 23:47:00,65.1,59.5,29.97,NNW,328,3.0,7.0,82,0.00,,,0.00,Wunderground v.1.15,2013-10-19 04:47:00,
2013-10-18 23:52:00,65.1,59.5,29.95,NNE,30,2.0,3.0,82,0.00,,,0.00,Wunderground v.1.15,2013-10-19 04:52:00,
2013-10-18 23:57:00,65.0,59.4,29.95,East,82,4.0,7.0,82,0.00,,,0.00,Wunderground v.1.15,2013-10-19 04:57:00,